Location: Alessandro
(33.8861°N, 117.2703°W)
Time: 06:32:15
(UTC+00:00)

Daily predictions for brighter satellites

Satellite Brightness Start Highest point End
(mag) Time Altitude Azimuth Time Altitude Azimuth Time Altitude Azimuth
BREEZE-M DEB (TANK) 4.1 12:05:26 20° ENE 12:05:26 20° ENE 12:06:26 10° E
ADEOS 4.1 12:01:57 10° NNE 12:07:07 59° ESE 12:12:15 10° S
Cosmos 1484 Rocket 3.7 12:03:48 10° NNE 12:07:30 46° E 12:11:06 10° S
Cosmos 292 Rocket 4.4 12:15:44 40° SSW 12:15:44 40° SSW 12:19:05 10° S
Cosmos 1833 Rocket 2.8 12:17:48 50° WNW 12:18:04 51° WNW 12:23:34 10° N
Lacrosse 5 rocket 3.4 12:29:12 13° N 12:29:12 13° N 12:29:57 10° N
Cosmos 44 Rocket 3.3 12:25:06 28° NNW 12:27:51 83° WSW 12:33:02 10° SSE
ATLAS 3B R/B 2.6 12:26:50 29° SW 12:30:14 58° WNW 12:36:45 10° NNE
Meteor 1-31 Rocket 3.0 12:28:06 10° NNE 12:32:03 72° ESE 12:35:56 10° S
Meteor 1-24 Rocket 3.7 12:27:18 10° S 12:32:49 83° E 12:38:35 10° N
ATLAS CENTAUR Rocket 3.8 12:36:29 15° SW 12:36:30 15° SW 12:38:59 10° S
METEOR-M 4.1 12:31:27 10° NNE 12:36:49 87° ESE 12:42:09 10° SSW
USA 290 2.6 12:37:59 45° NNW 12:37:59 45° NNW 12:40:30 10° N
ARGOS Delta rocket 4.5 12:32:35 10° NNE 12:38:02 69° E 12:43:28 10° S
ISS -1.2 12:39:29 11° N 12:39:29 11° N 12:40:01 10° N
Cosmos 2082 Rocket 2.1 12:34:01 10° SSW 12:39:32 62° WNW 12:45:06 10° NNE
Cosmos 2369 4.0 12:34:15 10° NNW 12:39:53 69° ENE 12:45:29 10° SSE
Cosmos 2228 3.1 12:35:34 10° N 12:39:57 79° E 12:44:20 10° S
ATLAS CENTAUR R/B 4.1 12:37:16 10° SSE 12:40:07 19° ESE 12:42:53 10° ENE
ADEOS Rocket 3.1 12:36:26 10° SSW 12:41:35 40° W 12:46:44 10° NNW
Cosmos 1656 4.0 12:41:10 18° NW 12:45:02 45° WSW 12:50:22 10° S
Cosmos 1606 Rocket 3.5 12:43:16 10° N 12:47:45 89° W 12:52:13 10° S
ERS-2 2.2 12:46:40 10° S 12:50:11 50° W 12:53:33 11° NNW
COSMO-SKYMED 1 3.7 12:46:19 10° SSE 12:50:28 46° ENE 12:54:38 10° N
SAR-Lupe-4 3.8 12:47:24 10° SSE 12:50:56 70° ENE 12:54:29 10° N
ALOS 2.4 12:46:49 10° N 12:51:18 49° WNW 12:55:48 10° SSW
H-2A R/B 3.6 12:49:10 10° SSW 12:51:14 19° SW 12:51:14 19° SW
NOSS 8 (A) 4.5 12:52:51 20° SW 12:55:11 53° WNW 12:58:13 10° NNE
CZ-4B R/B 4.0 12:54:26 10° N 12:58:26 49° WNW 13:02:13 10° SSW
Cosmos 1092 Rocket 4.0 12:55:10 10° SSW 13:01:10 57° W 13:07:18 10° N
Meteor 2-5 Rocket 4.1 12:56:32 10° SW 13:01:47 39° WNW 13:07:11 10° N
Cosmos 614 Rocket 3.9 12:56:53 10° SSW 13:02:03 90° SSE 13:07:12 10° NNE
Cosmos 2251 Rocket 3.9 12:58:12 10° SW 13:03:15 42° WNW 13:08:19 10° N
Cosmos 1400 Rocket 2.8 12:59:38 10° N 13:03:34 83° E 13:07:25 10° S
Cosmos 220 Rocket 4.0 13:04:13 10° NNW 13:08:36 61° WSW 13:12:55 10° S
Cosmos 1697 Rocket 2.8 13:03:09 10° NNW 13:08:39 55° WSW 13:14:08 10° S
SAR-Lupe-1 3.9 13:05:16 10° S 13:08:47 70° WSW 13:12:21 10° NNW
Okean 1-7 Rocket 3.6 13:08:06 10° SSW 13:12:37 66° W 13:17:08 10° N
CZ-2C R/B 4.3 13:14:00 10° NW 13:14:35 11° NW 13:14:35 11° NW
deb Chang Zheng 4 4.4 13:12:07 10° NNW 13:15:41 27° WNW 13:19:16 10° SW
Cosmos 2084 4.2 13:12:23 12° WSW 13:15:55 31° NW 13:19:50 10° N
FENGYUN 3A 4.4 13:13:55 10° N 13:18:34 30° WNW 13:23:12 10° SW
Cosmos 2058 Rocket 3.0 13:16:15 10° N 13:20:45 79° W 13:25:10 10° S
DELTA 2 R/B (1) 4.2 13:17:21 13° W 13:21:54 41° SSW 13:27:08 10° SE
Cosmos 1300 3.3 13:20:14 10° NNW 13:23:42 34° W 13:27:09 10° SSW
Cosmos 1892 Rocket 4.2 13:20:10 10° SW 13:24:00 31° W 13:27:54 10° NNW
Cosmos 1190 Rocket 4.3 13:20:01 10° S 13:25:15 74° ESE 13:30:28 10° NNE
H-2A R/B 3.4 13:21:25 10° NNE 13:25:39 55° E 13:29:44 10° S
Cosmos 1626 4.2 13:27:48 10° WNW 13:27:48 10° WNW 13:27:52 10° WNW
Cosmos 1980 Rocket 2.2 13:25:36 10° NNW 13:31:10 70° WSW 13:36:43 10° S
CZ-4B R/B 3.1 13:31:13 10° SW 13:33:25 16° W 13:35:37 10° NW
Cosmos 2098 Rocket 3.9 13:27:50 10° S 13:34:25 88° WNW 13:39:44 10° N
Cosmos 1315 Rocket 3.6 13:30:27 10° N 13:34:31 60° E 13:38:36 10° SSE
Cosmos 2292 Rocket 3.2 13:33:05 10° S 13:36:00 67° E 13:39:19 10° NNE
Abrixas rocket 4.2 13:33:54 10° NNW 13:36:00 18° NNE 13:38:05 10° ENE
SKYMED 2 3.9 13:34:22 10° S 13:38:30 44° W 13:42:38 10° NNW
